Time,TemperatureF,DewpointF,PressureIn,WindDirection,WindDirectionDegrees,WindSpeedMPH,WindSpeedGustMPH,Humidity,HourlyPrecipIn,Conditions,Clouds,dailyrainin,SolarRadiationWatts/m^2,SoftwareType,DateUTC
2013-09-05 00:00:00,77.0,54.0,-100.00,NNE,17,7.0,15.0,44,-99.99,,,0.00,0.000000,,2013-09-05 07:00:00,
2013-09-05 00:42:00,77.0,54.0,-100.00,NNE,17,7.0,15.0,44,-99.99,,,0.00,0.000000,,2013-09-05 07:42:00,
2013-09-05 00:52:00,77.0,54.0,-100.00,NNE,17,7.0,15.0,44,-99.99,,,0.00,0.000000,,2013-09-05 07:52:00,
2013-09-05 01:00:00,75.0,55.0,-100.00,NNE,25,4.0,11.0,48,-99.99,,,0.00,0.000000,,2013-09-05 08:00:00,
2013-09-05 01:42:00,75.0,55.0,-100.00,NNE,25,4.0,11.0,48,-99.99,,,0.00,0.000000,,2013-09-05 08:42:00,
2013-09-05 01:52:00,75.0,55.0,-100.00,NNE,25,4.0,11.0,48,-99.99,,,0.00,0.000000,,2013-09-05 08:52:00,
2013-09-05 02:00:00,72.0,55.0,-100.00,WNW,297,5.0,12.0,55,-99.99,,,0.00,0.000000,,2013-09-05 09:00:00,
2013-09-05 02:43:00,72.0,55.0,-100.00,WNW,297,5.0,12.0,55,-99.99,,,0.00,0.000000,,2013-09-05 09:43:00,
2013-09-05 02:54:00,72.0,55.0,-100.00,WNW,297,5.0,12.0,55,-99.99,,,0.00,0.000000,,2013-09-05 09:54:00,
2013-09-05 03:00:00,71.0,58.0,-100.00,SSE,154,1.0,5.0,63,-99.99,,,0.00,0.000000,,2013-09-05 10:00:00,
2013-09-05 03:43:00,71.0,58.0,-100.00,SSE,154,1.0,5.0,63,-99.99,,,0.00,0.000000,,2013-09-05 10:43:00,
2013-09-05 03:53:00,71.0,58.0,-100.00,SSE,154,1.0,5.0,63,-99.99,,,0.00,0.000000,,2013-09-05 10:53:00,
2013-09-05 04:00:00,71.0,58.0,-100.00,West,275,5.0,9.0,63,-99.99,,,0.00,0.000000,,2013-09-05 11:00:00,
2013-09-05 04:42:00,71.0,58.0,-100.00,West,275,5.0,9.0,63,-99.99,,,0.00,0.000000,,2013-09-05 11:42:00,
2013-09-05 04:52:00,71.0,58.0,-100.00,West,275,5.0,9.0,63,-99.99,,,0.00,0.000000,,2013-09-05 11:52:00,
2013-09-05 05:00:00,70.0,59.0,-100.00,WSW,252,3.0,8.0,67,-99.99,,,0.00,0.000000,,2013-09-05 12:00:00,
2013-09-05 05:42:00,70.0,59.0,-100.00,WSW,252,3.0,8.0,67,-99.99,,,0.00,0.000000,,2013-09-05 12:42:00,
2013-09-05 05:52:00,70.0,59.0,-100.00,WSW,252,3.0,8.0,67,-99.99,,,0.00,0.000000,,2013-09-05 12:52:00,
2013-09-05 06:00:00,70.0,59.0,-100.00,NNE,29,6.0,12.0,69,-99.99,,,0.00,0.000000,,2013-09-05 13:00:00,
2013-09-05 06:53:00,70.0,59.0,-100.00,NNE,29,6.0,12.0,69,-99.99,,,0.00,0.000000,,2013-09-05 13:53:00,
2013-09-05 07:00:00,70.0,59.0,-100.00,WNW,292,4.0,7.0,67,-99.99,,,0.00,14.300000,,2013-09-05 14:00:00,
2013-09-05 07:42:00,70.0,59.0,-100.00,WNW,292,4.0,7.0,67,-99.99,,,0.00,14.300000,,2013-09-05 14:42:00,
2013-09-05 07:52:00,70.0,59.0,-100.00,WNW,292,4.0,7.0,67,-99.99,,,0.00,14.300000,,2013-09-05 14:52:00,
2013-09-05 08:00:00,71.0,61.0,-100.00,West,263,3.0,6.0,71,-99.99,,,0.00,174.100006,,2013-09-05 15:00:00,
2013-09-05 08:44:00,71.0,61.0,-100.00,West,263,3.0,6.0,71,-99.99,,,0.00,174.100006,,2013-09-05 15:44:00,
2013-09-05 08:54:00,71.0,61.0,-100.00,West,263,3.0,6.0,71,-99.99,,,0.00,174.100006,,2013-09-05 15:54:00,
2013-09-05 09:00:00,74.0,62.0,-100.00,West,264,3.0,5.0,66,-99.99,,,0.00,274.980011,,2013-09-05 16:00:00,
2013-09-05 09:43:00,74.0,62.0,-100.00,West,264,3.0,5.0,66,-99.99,,,0.00,274.980011,,2013-09-05 16:43:00,
2013-09-05 09:54:00,74.0,62.0,-100.00,West,264,3.0,5.0,66,-99.99,,,0.00,274.980011,,2013-09-05 16:54:00,
2013-09-05 10:00:00,75.0,60.0,-100.00,West,276,3.0,5.0,60,-99.99,,,0.00,310.190002,,2013-09-05 17:00:00,
2013-09-05 10:43:00,75.0,60.0,-100.00,West,276,3.0,5.0,60,-99.99,,,0.00,310.190002,,2013-09-05 17:43:00,
2013-09-05 10:52:00,75.0,60.0,-100.00,West,276,3.0,5.0,60,-99.99,,,0.00,310.190002,,2013-09-05 17:52:00,
2013-09-05 11:00:00,76.0,61.0,-100.00,WSW,243,2.0,4.0,58,-99.99,,,0.00,316.230011,,2013-09-05 18:00:00,
2013-09-05 11:42:00,76.0,61.0,-100.00,WSW,243,2.0,4.0,58,-99.99,,,0.00,316.230011,,2013-09-05 18:42:00,
2013-09-05 11:52:00,76.0,61.0,-100.00,WSW,243,2.0,4.0,58,-99.99,,,0.00,316.230011,,2013-09-05 18:52:00,
2013-09-05 12:00:00,81.0,55.0,-100.00,SSW,196,2.0,4.0,40,-99.99,,,0.00,582.609985,,2013-09-05 19:00:00,
2013-09-05 12:42:00,81.0,55.0,-100.00,SSW,196,2.0,4.0,40,-99.99,,,0.00,582.609985,,2013-09-05 19:42:00,
2013-09-05 12:52:00,81.0,55.0,-100.00,SSW,196,2.0,4.0,40,-99.99,,,0.00,582.609985,,2013-09-05 19:52:00,
2013-09-05 13:00:00,82.0,58.0,-100.00,SSE,148,1.0,3.0,43,-99.99,,,0.00,403.399994,,2013-09-05 20:00:00,
2013-09-05 13:42:00,82.0,58.0,-100.00,SSE,148,1.0,3.0,43,-99.99,,,0.00,403.399994,,2013-09-05 20:42:00,
2013-09-05 13:52:00,82.0,58.0,-100.00,SSE,148,1.0,3.0,43,-99.99,,,0.00,403.399994,,2013-09-05 20:52:00,
2013-09-05 14:00:00,83.0,57.0,-100.00,ENE,77,7.0,11.0,40,-99.99,,,0.00,395.149994,,2013-09-05 21:00:00,
2013-09-05 14:44:00,83.0,57.0,-100.00,ENE,77,7.0,11.0,40,-99.99,,,0.00,395.149994,,2013-09-05 21:44:00,
2013-09-05 14:54:00,83.0,57.0,-100.00,ENE,77,7.0,11.0,40,-99.99,,,0.00,395.149994,,2013-09-05 21:54:00,
2013-09-05 15:00:00,84.0,58.0,-100.00,East,88,4.0,7.0,41,-99.99,,,0.00,676.869995,,2013-09-05 22:00:00,
2013-09-05 15:43:00,84.0,58.0,-100.00,East,88,4.0,7.0,41,-99.99,,,0.00,676.869995,,2013-09-05 22:43:00,
2013-09-05 15:53:00,84.0,58.0,-100.00,East,88,4.0,7.0,41,-99.99,,,0.00,676.869995,,2013-09-05 22:53:00,
2013-09-05 16:00:00,83.0,61.0,-100.00,East,99,3.0,7.0,47,-99.99,,,0.00,535.429993,,2013-09-05 23:00:00,
2013-09-05 16:42:00,83.0,61.0,-100.00,East,99,3.0,7.0,47,-99.99,,,0.00,535.429993,,2013-09-05 23:42:00,
2013-09-05 16:53:00,83.0,61.0,-100.00,East,99,3.0,7.0,47,-99.99,,,0.00,535.429993,,2013-09-05 23:53:00,
2013-09-05 17:00:00,83.0,60.0,-100.00,East,92,4.0,7.0,46,-99.99,,,0.00,345.989990,,2013-09-06 00:00:00,
2013-09-05 17:42:00,83.0,60.0,-100.00,East,92,4.0,7.0,46,-99.99,,,0.00,345.989990,,2013-09-06 00:42:00,
2013-09-05 17:52:00,83.0,60.0,-100.00,East,92,4.0,7.0,46,-99.99,,,0.00,345.989990,,2013-09-06 00:52:00,
2013-09-05 18:00:00,85.0,56.0,-100.00,ENE,78,3.0,5.0,37,-99.99,,,0.00,154.110001,,2013-09-06 01:00:00,
2013-09-05 18:52:00,85.0,56.0,-100.00,ENE,78,3.0,5.0,37,-99.99,,,0.00,154.110001,,2013-09-06 01:52:00,
2013-09-05 19:00:00,83.0,55.0,-100.00,ENE,72,5.0,9.0,37,-99.99,,,0.00,21.150000,,2013-09-06 02:00:00,
2013-09-05 19:42:00,83.0,55.0,-100.00,ENE,72,5.0,9.0,37,-99.99,,,0.00,21.150000,,2013-09-06 02:42:00,
2013-09-05 19:52:00,83.0,55.0,-100.00,ENE,72,5.0,9.0,37,-99.99,,,0.00,21.150000,,2013-09-06 02:52:00,
2013-09-05 20:00:00,81.0,57.0,-100.00,East,80,5.0,7.0,44,-99.99,,,0.00,0.000000,,2013-09-06 03:00:00,
2013-09-05 20:44:00,81.0,57.0,-100.00,East,80,5.0,7.0,44,-99.99,,,0.00,0.000000,,2013-09-06 03:44:00,
2013-09-05 20:55:00,81.0,57.0,-100.00,East,80,5.0,7.0,44,-99.99,,,0.00,0.000000,,2013-09-06 03:55:00,
2013-09-05 21:00:00,79.0,60.0,-100.00,SE,124,3.0,18.0,52,-99.99,,,0.00,0.000000,,2013-09-06 04:00:00,
2013-09-05 21:44:00,79.0,60.0,-100.00,SE,124,3.0,18.0,52,-99.99,,,0.00,0.000000,,2013-09-06 04:44:00,
2013-09-05 21:54:00,79.0,60.0,-100.00,SE,124,3.0,18.0,52,-99.99,,,0.00,0.000000,,2013-09-06 04:54:00,
2013-09-05 22:00:00,71.0,60.0,-100.00,ESE,118,11.0,25.0,70,-99.99,,,0.00,0.000000,,2013-09-06 05:00:00,
2013-09-05 22:42:00,71.0,60.0,-100.00,ESE,118,11.0,25.0,70,-99.99,,,0.00,0.000000,,2013-09-06 05:42:00,
2013-09-05 22:52:00,71.0,60.0,-100.00,ESE,118,11.0,25.0,70,-99.99,,,0.00,0.000000,,2013-09-06 05:52:00,
2013-09-05 23:00:00,70.0,60.0,-100.00,South,180,3.0,12.0,71,-99.99,,,0.00,0.000000,,2013-09-06 06:00:00,
2013-09-05 23:42:00,70.0,60.0,-100.00,South,180,3.0,12.0,71,-99.99,,,0.00,0.000000,,2013-09-06 06:42:00,
2013-09-05 23:53:00,70.0,60.0,-100.00,South,180,3.0,12.0,71,-99.99,,,0.00,0.000000,,2013-09-06 06:53:00,